Flag for Canada Weather past 2 weeks in St. John's, Newfoundland and Labrador, Canada

Now
50 °F

Light rain. Mostly cloudy.


Feels Like: 44 °F
Forecast: 53 / 59 °F
Wind: 18 mph from Southeast

Location: St. John's

Current Time: Sep 15, 2014 at 1:48:05 AM

Latest Report: Sep 15, 2014 at 1:30 AM


Visibility: 12 mi

Pressure: 30.12 "Hg

Humidity: 94%

Dew point: 48 °F

Location of St. John'sLocation

Historic Weather in St. John's — Graph

°F

St. John's temperature yesterday

Maximum temperature yesterday: 54 °F (at 12:30 PM)
Minimum temperature yesterday: 39 °F (at 3:30 AM)
Average temperature yesterday: 48 °F

Past Weeks' High & Low Weather Summary

 TemperatureHumidityPressure
High77 °F (Sep 6, 1:30 PM)100% (Sep 1, 1:30 AM)30.49 "Hg (Sep 1, 1:30 AM)
Low39 °F (Sep 14, 3:30 AM)42% (Sep 8, 1:30 PM)29.69 "Hg (Sep 12, 4:30 PM)
Average58 °F85%30.06 "Hg
* Reported Aug 31 12:30 AM — Sep 15 12:30 AM, St. John's, Weather by CustomWeather, © 2014

Note: Actual official high and low records may vary slightly from our data, if they occured in-between our weather recording intervals... More about our weather records

Advertising

St. John's weather history for previous 24 hours

 ConditionsComfort  
Time TempWeatherWind HumidityBarometerVisibility
12:30 AM
Sep 15
50 °FLight rain. Mostly cloudy.17 mph94%30.15 "Hg12 mi
12:23 AM50 °FLight rain. Mostly cloudy.20 mph88%30.15 "Hg12 mi
11:30 PM
Sep 14
50 °FLight rain. Mostly cloudy.20 mph94%30.16 "Hg12 mi
10:30 PM50 °FLight rain. Mostly cloudy.20 mph94%30.20 "Hg8 mi
9:30 PM52 °FLight rain. Mostly cloudy.16 mph88%30.22 "Hg10 mi
8:30 PM52 °FLight rain. Overcast.20 mph88%30.22 "Hg12 mi
7:30 PM52 °FMostly cloudy.13 mph88%30.23 "Hg15 mi
6:30 PM52 °FOvercast.12 mph82%30.26 "Hg15 mi
5:30 PM50 °FLight rain. Overcast.9 mph88%30.27 "Hg15 mi
4:30 PM52 °FOvercast.10 mph72%30.30 "Hg15 mi
3:30 PM52 °FMostly cloudy.10 mph72%30.32 "Hg15 mi
2:30 PM54 °FOvercast.8 mph67%30.34 "Hg15 mi
1:30 PM52 °FOvercast.13 mph72%30.36 "Hg15 mi
12:30 PM54 °FOvercast.14 mph67%30.37 "Hg15 mi
11:30 AM52 °FPartly sunny.15 mph77%30.39 "Hg15 mi
10:30 AM52 °FOvercast.15 mph77%30.42 "Hg15 mi
9:30 AM50 °FMore clouds than sun.9 mph82%30.44 "Hg15 mi
8:30 AM46 °FMore clouds than sun.6 mph93%30.45 "Hg15 mi
7:30 AM45 °FMostly cloudy.5 mph93%30.46 "Hg15 mi
6:30 AM45 °FPassing clouds.6 mph87%30.44 "Hg15 mi
5:30 AM43 °FPassing clouds.5 mph87%30.44 "Hg15 mi
4:30 AM39 °FPassing clouds.2 mph93%30.45 "Hg15 mi
3:30 AM39 °FPassing clouds.2 mph93%30.46 "Hg15 mi
2:30 AM41 °FPassing clouds.2 mph93%30.46 "Hg15 mi
1:30 AM41 °FPassing clouds.3 mph87%30.47 "Hg15 mi
Weather by CustomWeather, © 2014

See weather overviewHow to use our weather pages